This demonstration page uses our WeatherBlox Daily Observations layout. Learn more.

Left ArrowRight Arrow

Hourly Observations for December 20, 2020

Temp ( °F °C ) Dew Point ( °F °C ) Humidity (%) Winds ( mph kmh ) Pressure ( in mb ) Visibility ( mi km ) Precip ( " mm )
12:54 am 00:54 Clear 27 -2.8 20 -6.7 75 75 S 6 9 29.96 1015 10 16.0934 0 0
1:54 am 01:54 Clear 27 -2.8 21 -6.1 78 78 SSW 3 6 29.96 1015 10 16.0934 0 0
2:54 am 02:54 Mostly Cloudy 28 -2.2 23 -5 81 81 S 3 6 29.97 1015 10 16.0934 0 0
3:54 am 03:54 Clear 27 -2.8 21 -6.1 78 78 WSW 3 6 29.97 1015 10 16.0934 0 0
4:54 am 04:54 Clear 29 -1.7 23 -5 78 78 NW 7 11 29.98 1015 10 16.0934 0 0
5:54 am 05:54 Clear 33 0.6 24 -4.4 70 70 NW 9 15 30.01 1016 10 16.0934 0 0
6:54 am 06:54 Clear 33 0.6 24 -4.4 70 70 NW 9 15 30.01 1016 10 16.0934 0 0
7:54 am 07:54 Sunny 27 -2.8 21 -6.1 78 78 Calm 30.02 1017 10 16.0934 0 0
8:54 am 08:54 Sunny 32 0 25 -3.9 75 75 Calm 30.04 1017 10 16.0934 0 0
9:54 am 09:54 Sunny 39 3.9 26 -3.3 60 60 Calm 30.03 1017 10 16.0934 0 0
10:54 am 10:54 Sunny 43 6.1 25 -3.9 49 49 NW 6 9 30.02 1017 10 16.0934 0 0
11:54 am 11:54 Sunny 45 7.2 25 -3.9 46 46 WSW 8 13 29.98 1015 10 16.0934 0 0
12:54 pm 12:54 Sunny 44 6.7 26 -3.3 49 49 WSW 7 11 29.95 1014 10 16.0934 0 0
1:54 pm 13:54 Sunny 46 7.8 27 -2.8 47 47 SW 8 13 29.92 1013 10 16.0934 0 0
2:54 pm 14:54 Sunny 45 7.2 28 -2.2 52 52 SSW 8 13 29.89 1012 10 16.0934 0 0
3:54 pm 15:54 Sunny 46 7.8 28 -2.2 50 50 SSW 7 11 29.87 1012 10 16.0934 0 0
4:54 pm 16:54 Sunny 39 3.9 28 -2.2 65 65 S 9 15 29.85 1011 10 16.0934 0 0
5:54 pm 17:54 Mostly Cloudy 40 4.4 28 -2.2 63 63 S 9 15 29.82 1010 10 16.0934 0 0
6:54 pm 18:54 Cloudy 45 7.2 26 -3.3 48 48 SSW 12 19 29.8 1009 10 16.0934 0 0
7:54 pm 19:54 Clear 43 6.1 25 -3.9 49 49 SW 13 20 29.78 1008 10 16.0934 0 0
8:54 pm 20:54 Mostly Clear 45 7.2 26 -3.3 48 48 WSW 15 24 29.77 1008 10 16.0934 0 0
9:54 pm 21:54 Clear 43 6.1 27 -2.8 53 53 WSW 16 26 29.75 1008 10 16.0934 0 0
10:54 pm 22:54 Clear 43 6.1 28 -2.2 56 56 W 16 26 29.77 1008 10 16.0934 0 0
11:54 pm 23:54 Clear 45 7.2 28 -2.2 52 52 W 16 26 29.78 1009 10 16.0934 0 0

Powered by AerisWeather